When you browse on this site, cookies collect data to enhance your experience and personalize the content and advertising you see.
Visit our Privacy Policy to learn more. By continuing to use the site, you agree to this use of cookies and data.
  • In Hungary
  • List of Countries
  • For 7 days
  • Water Temperature
  • Satellite Maps
  • Weather Map
  • News
  • Weather Widgets
  • user-avatar
    Login

    Hourly Weather Buftea

    Today, 22 March, Friday

    Time Temperature Precipitation Wind Pressure Humidity
    00:00 +8°C° 0 mm 2 mps 764 mmHg 71%
    01:00 +8°C° 0 mm 2 mps 764 mmHg 72%
    02:00 +7°C° 0 mm 2 mps 764 mmHg 71%
    03:00 +7°C° 0 mm 2 mps 764 mmHg 70%
    04:00 +8°C° 0 mm 1 mps 763 mmHg 69%
    05:00 +8°C° 0 mm 1 mps 763 mmHg 68%
    06:00 +8°C° 0 mm 1 mps 763 mmHg 65%
    07:00 +9°C° 0 mm 1 mps 763 mmHg 62%
    08:00 +10°C° 0 mm 1 mps 763 mmHg 59%
    09:00 +11°C° 0 mm 1 mps 763 mmHg 55%
    10:00 +12°C° 0 mm 1 mps 763 mmHg 51%
    11:00 +14°C° 0 mm 2 mps 762 mmHg 47%
    12:00 +15°C° 0 mm 2 mps 762 mmHg 44%
    13:00 +16°C° 0 mm 2 mps 761 mmHg 42%
    14:00 +17°C° 0 mm 3 mps 761 mmHg 39%
    15:00 +17°C° 0 mm 3 mps 761 mmHg 39%
    16:00 +17°C° 0 mm 2 mps 760 mmHg 39%
    17:00 +17°C° 0 mm 2 mps 760 mmHg 40%
    18:00 +16°C° 0 mm 2 mps 760 mmHg 44%
    19:00 +15°C° 0 mm 2 mps 760 mmHg 48%
    20:00 +14°C° 0 mm 2 mps 760 mmHg 53%
    21:00 +14°C° 0 mm 2 mps 760 mmHg 55%
    22:00 +13°C° 0 mm 2 mps 760 mmHg 58%
    23:00 +12°C° 0 mm 2 mps 761 mmHg 60%

    Tomorrow, 23 March, Saturday

    Time Temperature Precipitation Wind Pressure Humidity
    00:00 +12°C° 0 mm 2 mps 761 mmHg 61%
    01:00 +12°C° 0 mm 2 mps 761 mmHg 63%
    02:00 +10°C° 0 mm 2 mps 761 mmHg 64%
    03:00 +10°C° 0 mm 2 mps 760 mmHg 69%
    04:00 +9°C° 0 mm 2 mps 760 mmHg 75%
    05:00 +9°C° 0 mm 2 mps 760 mmHg 80%
    06:00 +9°C° 0 mm 2 mps 760 mmHg 77%
    07:00 +9°C° 0 mm 2 mps 760 mmHg 75%
    08:00 +10°C° 0 mm 2 mps 760 mmHg 72%
    09:00 +10°C° 0 mm 2 mps 760 mmHg 68%
    10:00 +12°C° 0 mm 2 mps 760 mmHg 65%
    11:00 +13°C° 0 mm 2 mps 759 mmHg 61%
    12:00 +13°C° 0 mm 2 mps 759 mmHg 58%
    13:00 +13°C° 0 mm 3 mps 759 mmHg 55%
    14:00 +14°C° 0 mm 3 mps 759 mmHg 53%
    15:00 +14°C° 0 mm 3 mps 758 mmHg 52%
    16:00 +14°C° 0 mm 3 mps 758 mmHg 52%
    17:00 +14°C° 0 mm 3 mps 758 mmHg 52%
    18:00 +13°C° 0 mm 3 mps 758 mmHg 55%
    19:00 +12°C° 0 mm 3 mps 758 mmHg 58%
    20:00 +11°C° 0 mm 4 mps 759 mmHg 61%
    21:00 +11°C° 0 mm 4 mps 759 mmHg 55%
    22:00 +11°C° 0 mm 3 mps 759 mmHg 49%
    23:00 +11°C° 0 mm 3 mps 760 mmHg 43%

    Day after tomorrow, 24 March, Sunday

    Time Temperature Precipitation Wind Pressure Humidity
    00:00 +10°C° 0 mm 3 mps 760 mmHg 39%
    01:00 +10°C° 0 mm 2 mps 759 mmHg 35%
    02:00 +9°C° 0 mm 2 mps 759 mmHg 31%
    03:00 +9°C° 0 mm 1 mps 759 mmHg 32%
    04:00 +9°C° 0 mm 1 mps 759 mmHg 33%
    05:00 +8°C° 0 mm 1 mps 759 mmHg 34%
    06:00 +8°C° 0 mm 1 mps 759 mmHg 33%
    07:00 +9°C° 0 mm 1 mps 759 mmHg 33%
    08:00 +8°C° 0 mm 0 mps 759 mmHg 32%
    09:00 +11°C° 0 mm 1 mps 759 mmHg 31%
    10:00 +12°C° 0 mm 1 mps 758 mmHg 30%
    11:00 +13°C° 0 mm 2 mps 758 mmHg 29%
    12:00 +14°C° 0 mm 2 mps 758 mmHg 29%
    13:00 +15°C° 0 mm 2 mps 757 mmHg 29%
    14:00 +16°C° 0 mm 3 mps 757 mmHg 30%
    15:00 +16°C° 0 mm 3 mps 756 mmHg 31%
    16:00 +17°C° 0 mm 3 mps 756 mmHg 32%
    17:00 +17°C° 0 mm 3 mps 755 mmHg 33%
    18:00 +16°C° 0 mm 3 mps 755 mmHg 35%
    19:00 +14°C° 0 mm 3 mps 755 mmHg 38%
    20:00 +12°C° 0 mm 3 mps 756 mmHg 41%
    21:00 +12°C° 0 mm 3 mps 755 mmHg 43%
    22:00 +12°C° 0 mm 2 mps 755 mmHg 45%
    23:00 +12°C° 0 mm 2 mps 755 mmHg 46%

    25 March, Monday

    Time Temperature Precipitation Wind Pressure Humidity
    00:00 +10°C° 0 mm 2 mps 755 mmHg 49%
    01:00 +10°C° 0 mm 2 mps 754 mmHg 51%
    02:00 +10°C° 0 mm 2 mps 754 mmHg 53%
    03:00 +9°C° 0 mm 2 mps 754 mmHg 56%
    04:00 +9°C° 0 mm 2 mps 753 mmHg 58%
    05:00 +8°C° 0 mm 2 mps 753 mmHg 60%
    06:00 +9°C° 0 mm 2 mps 753 mmHg 60%
    07:00 +10°C° 0 mm 2 mps 753 mmHg 60%
    08:00 +11°C° 0 mm 1 mps 753 mmHg 60%
    09:00 +13°C° 0 mm 2 mps 753 mmHg 57%
    10:00 +14°C° 0 mm 2 mps 752 mmHg 54%
    11:00 +14°C° 0 mm 3 mps 752 mmHg 51%
    12:00 +15°C° 0 mm 4 mps 752 mmHg 52%
    13:00 +15°C° 0 mm 4 mps 751 mmHg 52%
    14:00 +15°C° 0 mm 5 mps 751 mmHg 53%
    15:00 +14°C° 0.1 mm 5 mps 751 mmHg 56%
    16:00 +13°C° 0.1 mm 5 mps 750 mmHg 58%
    17:00 +12°C° 0.1 mm 5 mps 750 mmHg 61%
    18:00 +12°C° 0.1 mm 5 mps 751 mmHg 63%
    19:00 +10°C° 0.1 mm 5 mps 751 mmHg 65%
    20:00 +10°C° 0.1 mm 4 mps 752 mmHg 67%
    21:00 +10°C° 0.1 mm 4 mps 752 mmHg 69%
    22:00 +10°C° 0.1 mm 3 mps 752 mmHg 71%
    23:00 +10°C° 0.1 mm 3 mps 752 mmHg 72%

    26 March, Tuesday

    Time Temperature Precipitation Wind Pressure Humidity
    00:00 +9°C° 0.4 mm 2 mps 752 mmHg 74%
    01:00 +9°C° 0.4 mm 2 mps 752 mmHg 77%
    02:00 +10°C° 0.4 mm 1 mps 752 mmHg 79%
    03:00 +9°C° 0.7 mm 1 mps 752 mmHg 78%
    04:00 +8°C° 0.7 mm 2 mps 752 mmHg 77%
    05:00 +8°C° 0.7 mm 2 mps 752 mmHg 76%
    06:00 +7°C° 0.8 mm 2 mps 752 mmHg 75%
    07:00 +7°C° 0.8 mm 2 mps 752 mmHg 73%
    08:00 +7°C° 0.8 mm 2 mps 752 mmHg 71%
    09:00 +7°C° 0.7 mm 2 mps 752 mmHg 68%
    10:00 +7°C° 0.7 mm 2 mps 753 mmHg 65%
    11:00 +8°C° 0.7 mm 2 mps 753 mmHg 62%
    12:00 +8°C° 0.2 mm 2 mps 753 mmHg 58%
    13:00 +9°C° 0.2 mm 2 mps 753 mmHg 54%
    14:00 +10°C° 0.2 mm 3 mps 753 mmHg 51%
    15:00 +10°C° 0.1 mm 3 mps 753 mmHg 51%
    16:00 +10°C° 0.1 mm 3 mps 753 mmHg 52%
    17:00 +10°C° 0.1 mm 4 mps 753 mmHg 52%
    18:00 +8°C° 0.1 mm 4 mps 754 mmHg 59%
    19:00 +8°C° 0.1 mm 5 mps 755 mmHg 65%
    20:00 +7°C° 0.1 mm 5 mps 756 mmHg 71%
    21:00 +7°C° 0.2 mm 5 mps 756 mmHg 71%
    22:00 +6°C° 0.2 mm 5 mps 757 mmHg 72%
    23:00 +5°C° 0.2 mm 6 mps 757 mmHg 73%

    27 March, Wednesday

    Time Temperature Precipitation Wind Pressure Humidity
    00:00 +5°C° 0.1 mm 6 mps 758 mmHg 72%
    01:00 +5°C° 0.1 mm 6 mps 758 mmHg 71%
    02:00 +5°C° 0.1 mm 6 mps 758 mmHg 70%
    03:00 +6°C° 0 mm 5 mps 759 mmHg 68%
    04:00 +6°C° 0 mm 5 mps 759 mmHg 67%
    05:00 +6°C° 0 mm 5 mps 759 mmHg 66%
    06:00 +6°C° 0 mm 5 mps 760 mmHg 64%
    07:00 +5°C° 0 mm 6 mps 760 mmHg 61%
    08:00 +6°C° 0 mm 7 mps 761 mmHg 59%
    09:00 +8°C° 0 mm 7 mps 761 mmHg 53%
    10:00 +9°C° 0 mm 8 mps 761 mmHg 48%
    11:00 +11°C° 0 mm 8 mps 762 mmHg 42%
    12:00 +11°C° 0 mm 8 mps 761 mmHg 41%
    13:00 +11°C° 0 mm 7 mps 761 mmHg 40%
    14:00 +12°C° 0 mm 7 mps 761 mmHg 38%
    15:00 +13°C° 0 mm 6 mps 761 mmHg 39%
    16:00 +11°C° 0 mm 6 mps 761 mmHg 39%
    17:00 +12°C° 0 mm 5 mps 761 mmHg 39%
    18:00 +11°C° 0 mm 4 mps 761 mmHg 42%
    19:00 +10°C° 0 mm 4 mps 761 mmHg 46%
    20:00 +9°C° 0 mm 3 mps 762 mmHg 49%
    21:00 +9°C° 0 mm 3 mps 762 mmHg 51%
    22:00 +8°C° 0 mm 3 mps 762 mmHg 52%
    23:00 +8°C° 0 mm 3 mps 762 mmHg 54%
    Show more